Regional Weather Roundup
Issued by NWS Green Bay, WI

Current Version | Previous Version | Text Only | Print | Product List | Glossary On
Versions: 1 2 3 4 5 6 7 8 9 10 11 12 13 14 15 16 17 18 19 20 21 22 23 24 25 26 27 28 29 30 31 32 33 34 35 36 37 38 39 40 41 42 43 44 45 46 47 48 49 50
000
ASUS43 KGRB 040911
RWRGRB

NORTH-CENTRAL AND NORTHEAST WISCONSIN REGIONAL WEATHER ROUNDUP
NATIONAL WEATHER SERVICE GREEN BAY WI
400 AM CDT SAT APR 04 2020

WIZ005-009-010>012-018-019-041000-
NORTH CENTRAL WISCONSIN

CITY           SKY/WX    TMP DP  RH WIND       PRES   REMARKS
IRONWOOD       CLOUDY    23  21  92 NW12      30.16R
MANITOWISH WTR CLOUDY    22  22  98 N7        30.12R
ARBOR VITAE    CLOUDY    24  22  91 NW13      30.10S
EAGLE RIVER    CLOUDY    24  24  97 NW14      30.09R
LAND O LAKES   CLOUDY    25  24  96 NW8       30.10R
RHINELANDER    CLOUDY    24  21  88 NW9       30.09R
PHILLIPS       CLOUDY    22  21  97 NW5       30.14R
ANTIGO         CLOUDY    28  26  93 NW14      30.06R
TOMAHAWK       CLOUDY    24  21  90 NW10G18   30.12R
MERRILL        CLOUDY    26  25  93 CALM      30.11R
$$

WIZ013-073-041000-
NORTHEAST WISCONSIN

CITY           SKY/WX    TMP DP  RH WIND       PRES   REMARKS
IRON MOUNTAIN  CLOUDY    31  27  85 NW18      30.04R
MARINETTE      LGT RAIN  37  36  93 N8        30.03R
OCONTO         CLOUDY    38  37  93 N10G20    30.03R
$$

WIZ017-030-035>037-045-041000-
CENTRAL WISCONSIN

CITY           SKY/WX    TMP DP  RH WIND       PRES   REMARKS
MEDFORD        CLOUDY    23  21  93 CALM      30.12R
WAUSAU         CLOUDY    27  24  89 NW13G23   30.09R
MOSINEE        CLOUDY    28  27  93 NW10G17   30.11R
MARSHFIELD     CLOUDY    26  23  88 NW13      30.11R
WISC RAPIDS    CLOUDY    28  24  85 NW14      30.13R
STEVENS POINT  CLOUDY    27  26  94 NW9       30.11R
WAUPACA        CLOUDY    34  30  85 MISG      30.08R
SHAWANO        CLOUDY    38  34  87 NW10G17   30.05R
CLINTONVILLE   CLOUDY    36  32  87 NW9       30.06R
WAUTOMA        CLOUDY    30  28  92 NW15G21   30.10R
$$

WIZ038-039-048-051-041000-
FOX VALLEY

CITY           SKY/WX    TMP DP  RH WIND       PRES   REMARKS
NWS GREEN BAY  CLOUDY    41  36  82 NW13      30.02R
APPLETON       CLOUDY    36  34  93 NW16      30.03R
OSHKOSH        CLOUDY    35  32  88 NW15      30.04R
FOND DU LAC    CLOUDY    36  32  85 NW15      30.05R
$$

WIZ022-050-052-041000-
EAST CENTRAL WISCONSIN

CITY           SKY/WX    TMP DP  RH WIND       PRES   REMARKS
EPHRAIM        LGT RAIN  35  34  96 N8        30.00R
WASHINGTON ISL LGT RAIN  36  36  99 N7        30.00S
STURGEON BAY   LGT RAIN  37  36  96 NW13      30.01R
MANITOWOC      LGT RAIN  41  40  96 W13       30.01R
SHEBOYGAN      LGT RAIN  41  36  82 NW13      30.01R
$$

LMZ563-521-522-541>543-041000-
LAKESHORE

STATION/POSITION TIME  TEMP    WIND        PRES    VSBY  WAVE
                       AIR SEA DIR/SP/G                  HT/PER
                 (UTC) (F)     (DEG/KT/KT) (MB)    (MI)  (FT/S)
SHEBOYGAN LKSHOR 0900   40     290/ 16/ 20   N/A
KEWAUNEE LKSHORE 0830   41     300/  3/  5 1014.9R
NORTHPORT PIER   0840   35     310/  7/  9 1015.9S
SISTER BAY LKSHO 0858   36     350/ 12/ 14   N/A
MENOMINEE LKSHOR 0830   37 39  320/ 12/ 14 1015.9R
$$



USA.gov is the U.S. government's official web portal to all federal, state and local government web resources and services.